DK5BM-6 Weather Reports


time (UTC)temp
C
wind
direction
speed
KPH
gust
KPH
rain 1hr
cm
rain 24hr
cm
rain mn
cm
humidity
%
barometer
mb
20260506024901 8 0 0.0 0.0 0.00 1.30 0.00 96 1011.1
20260506024801 8 0 0.0 0.0 0.00 1.30 0.00 96 1011.1
20260506024700 8 0 0.0 0.0 0.00 1.30 0.00 96 1010.9
20260506024502 8 0 0.0 0.0 0.00 1.30 0.00 96 1011.2
20260506024400 8 0 0.0 0.0 0.00 1.30 0.00 96 1011.0
20260506024301 8 0 0.0 0.0 0.00 1.30 0.00 96 1011.0
20260506024201 8 0 0.0 0.0 0.00 1.30 0.00 96 1011.1
20260506024000 9 0 0.0 0.0 0.00 1.30 0.00 94 1011.1
20260506023800 9 0 0.0 0.0 0.00 1.30 0.00 94 1011.0
20260506023701 9 0 0.0 0.0 0.00 1.30 0.00 94 1011.0
20260506023600 9 0 0.0 0.0 0.00 1.30 0.00 94 1011.0
20260506023500 9 0 0.0 0.0 0.00 1.30 0.00 94 1011.0
20260506023401 9 0 0.0 0.0 0.00 1.30 0.00 94 1011.1
20260506023300 9 0 0.0 0.0 0.00 1.30 0.00 94 1010.9
20260506023200 9 0 0.0 0.0 0.00 1.30 0.00 94 1011.1
20260506023002 9 0 0.0 0.0 0.00 1.30 0.00 94 1011.1
20260506022900 9 0 0.0 0.0 0.00 1.30 0.00 94 1011.2
20260506022800 9 0 0.0 0.0 0.00 1.30 0.00 94 1011.2
20260506022701 9 0 0.0 0.0 0.00 1.30 0.00 94 1011.2
20260506022601 9 0 0.0 0.0 0.00 1.30 0.00 94 1011.1
20260506022400 9 0 0.0 0.0 0.00 1.30 0.00 94 1011.3
20260506022300 9 0 0.0 0.0 0.00 1.30 0.00 94 1011.3
20260506022201 9 0 0.0 0.0 0.00 1.30 0.00 94 1011.3
20260506022101 9 0 0.0 0.0 0.00 1.30 0.00 94 1011.4
20260506022000 9 112 0.0 3.2 0.00 1.30 0.00 94 1011.4
20260506021900 9 112 0.0 3.2 0.00 1.30 0.00 94 1011.4
20260506021800 9 112 0.0 3.2 0.00 1.30 0.00 94 1011.4
20260506021700 9 112 0.0 3.2 0.00 1.30 0.00 94 1011.3
20260506021600 9 112 0.0 3.2 0.00 1.30 0.00 94 1011.5
20260506021502 9 112 0.0 3.2 0.00 1.30 0.00 94 1011.4
20260506021401 9 112 0.0 3.2 0.00 1.30 0.00 94 1011.4
20260506021301 9 112 0.0 3.2 0.00 1.30 0.00 94 1011.3
20260506021200 9 112 0.0 3.2 0.00 1.30 0.00 94 1011.0
20260506021100 9 112 0.0 3.2 0.00 1.30 0.00 94 1011.6
20260506021000 9 112 0.0 3.2 0.00 1.30 0.00 94 1011.6
20260506020901 9 112 0.0 3.2 0.00 1.30 0.00 94 1011.6
20260506020700 9 112 0.0 6.4 0.00 1.30 0.00 94 1011.5
20260506020600 9 112 0.0 6.4 0.00 1.30 0.00 94 1011.4
20260506020400 9 112 0.0 6.4 0.00 1.30 0.00 94 1011.5
20260506020301 9 112 0.0 6.4 0.00 1.30 0.00 94 1011.7
20260506020201 9 114 0.0 6.4 0.00 1.30 0.00 94 1011.6
20260506020101 9 122 0.0 12.9 0.00 1.30 0.00 94 1011.6
20260506015900 9 125 1.6 12.9 0.00 1.30 0.00 94 1011.7
20260506015700 9 128 3.2 12.9 0.00 1.30 0.00 94 1011.6
20260506015600 9 132 3.2 12.9 0.00 1.30 0.00 94 1011.5
20260506015501 9 137 3.2 12.9 0.00 1.30 0.00 94 1011.7
20260506015401 9 143 3.2 12.9 0.00 1.30 0.00 94 1011.6
20260506015200 10 158 1.6 12.9 0.00 1.30 0.00 94 1011.7
20260506015100 10 158 4.8 12.9 0.00 13.34 0.00 94 1011.9
20260506015000 9 0 0.0 0.0 0.00 13.34 0.00 96 1011.6
20260506014901 9 0 0.0 0.0 0.00 13.34 0.00 96 1011.6
20260506014800 9 0 0.0 0.0 0.00 13.34 0.00 96 1011.8
20260506014700 9 0 0.0 0.0 0.00 13.34 0.00 96 1011.8
20260506014502 9 0 0.0 0.0 0.00 13.34 0.00 96 1011.5
20260506014400 9 0 0.0 0.0 0.00 13.34 0.00 96 1011.8
20260506014301 9 0 0.0 0.0 0.00 1.30 0.00 96 1011.7
20260506014201 9 0 0.0 0.0 0.00 1.30 0.00 96 1011.8
20260506014100 9 0 0.0 0.0 0.00 1.30 0.00 96 1011.8
20260506013801 9 0 0.0 0.0 0.00 1.30 0.00 96 1011.7
20260506013701 9 0 0.0 0.0 0.00 1.30 0.00 96 1011.6
20260506013600 9 0 0.0 0.0 0.00 1.30 0.00 96 1011.9
20260506013500 9 0 0.0 0.0 0.00 1.30 0.00 96 1011.6
20260506013400 9 0 0.0 0.0 0.00 1.30 0.00 96 1011.6
20260506013301 9 0 0.0 0.0 0.00 1.30 0.00 96 1011.5
20260506013200 9 0 0.0 0.0 0.00 1.30 0.00 96 1011.4
20260506013100 9 0 0.0 0.0 0.00 1.30 0.00 96 1011.6
20260506012900 9 0 0.0 0.0 0.00 1.30 0.00 96 1011.4
20260506012800 9 0 0.0 0.0 0.00 1.30 0.00 96 1011.7
20260506012700 9 0 0.0 0.0 0.00 1.30 0.00 96 1011.6
20260506012600 9 0 0.0 0.0 0.00 1.30 0.00 96 1011.6
20260506012501 9 0 0.0 0.0 0.00 1.30 0.00 96 1011.5
20260506012400 9 0 0.0 0.0 0.00 1.30 0.00 96 1011.5
20260506012300 9 0 0.0 0.0 0.00 1.30 0.00 96 1011.4
20260506012200 9 0 0.0 0.0 0.00 1.30 0.00 96 1011.6
20260506012101 9 0 0.0 0.0 0.00 1.30 0.00 96 1011.4
20260506012000 9 0 0.0 0.0 0.00 1.30 0.00 96 1011.5
20260506011900 9 0 0.0 0.0 0.00 1.30 0.00 96 1011.5
20260506011800 9 0 0.0 0.0 0.00 1.30 0.00 96 1011.5
20260506011701 9 0 0.0 0.0 0.00 1.30 0.00 96 1011.7
20260506011600 9 0 0.0 0.0 0.00 1.30 0.00 96 1011.5
20260506011502 9 0 0.0 0.0 0.00 1.30 0.00 96 1011.6
20260506011400 9 0 0.0 0.0 0.00 1.30 0.00 96 1011.6
20260506011300 9 0 0.0 0.0 0.00 1.30 0.00 96 1011.4
20260506011100 9 0 0.0 0.0 0.00 1.30 0.00 96 1011.5
20260506011000 9 112 0.0 3.2 0.00 1.30 0.00 96 1011.7
20260506010900 9 112 0.0 3.2 0.00 1.30 0.00 96 1011.5
20260506010801 9 112 0.0 3.2 0.00 1.30 0.00 96 1011.5
20260506010701 9 112 0.0 3.2 0.00 1.30 0.00 96 1011.4
20260506010600 9 112 0.0 3.2 0.00 1.30 0.00 96 1011.6
20260506010400 9 111 0.0 3.2 0.00 1.30 0.00 96 1011.5
20260506010300 9 112 0.0 3.2 0.00 1.30 0.00 96 1011.5
20260506010101 9 112 0.0 3.2 0.00 1.30 0.00 96 1011.6
20260506010003 9 113 0.0 3.2 0.00 1.30 0.00 96 1011.6
20260506005901 9 113 0.0 3.2 0.00 1.30 0.00 96 1011.6
20260506005800 9 113 0.0 3.2 0.00 1.30 0.00 96 1011.6
20260506005700 9 114 0.0 3.2 0.00 1.30 0.00 96 1011.7
20260506005600 9 114 0.0 3.2 0.00 1.30 0.00 96 1011.5
20260506005501 9 114 0.0 3.2 0.00 1.30 0.00 96 1011.3
20260506005401 9 115 0.0 3.2 0.00 1.30 0.00 96 1011.4
20260506005300 9 115 0.0 3.2 0.00 1.30 0.00 96 1011.5
20260506005100 9 118 0.0 3.2 0.00 1.30 0.00 96 1011.6
20260506005001 9 112 0.0 3.2 0.00 1.30 0.00 96 1011.3
20260506004801 9 0 0.0 0.0 0.00 1.30 0.00 97 1011.5
20260506004700 9 0 0.0 0.0 0.00 1.30 0.00 97 1011.5
20260506004600 9 0 0.0 0.0 0.00 1.30 0.00 97 1011.5
20260506004503 9 0 0.0 0.0 0.00 1.30 0.00 97 1011.4
20260506004400 9 0 0.0 0.0 0.00 1.30 0.00 97 1011.6
20260506004200 9 0 0.0 0.0 0.00 1.30 0.00 97 1011.5
20260506004101 9 0 0.0 0.0 0.00 1.30 0.00 97 1011.5
20260506003901 9 0 0.0 0.0 0.00 1.30 0.00 97 1011.6
20260506003800 9 0 0.0 0.0 0.00 1.30 0.00 97 1011.4
20260506003601 9 0 0.0 0.0 0.00 1.30 0.00 97 1011.6
20260506003501 9 0 0.0 0.0 0.00 1.30 0.00 97 1011.7
20260506003401 9 0 0.0 0.0 0.00 1.30 0.00 97 1011.6
20260506003300 9 0 0.0 0.0 0.00 1.30 0.00 97 1011.6
20260506003200 9 0 0.0 0.0 0.00 1.30 0.00 97 1011.5
20260506003101 9 0 0.0 0.0 0.00 1.30 0.00 97 1011.5
20260506002901 9 0 0.0 0.0 0.00 1.30 0.00 97 1011.6
20260506002801 9 0 0.0 0.0 0.00 1.30 0.00 97 1011.8
20260506002701 9 0 0.0 0.0 0.00 1.30 0.00 97 1011.7
20260506002301 9 0 0.0 0.0 0.00 1.30 0.00 96 1011.7
20260506002201 9 0 0.0 0.0 0.00 1.30 0.00 96 1011.8
20260506002100 9 0 0.0 0.0 0.00 1.30 0.00 96 1011.8
20260506002000 9 0 0.0 0.0 0.00 1.30 0.00 96 1011.8
20260506001901 9 0 0.0 0.0 0.00 1.30 0.00 96 1011.8
20260506001801 9 0 0.0 0.0 0.00 1.30 0.00 96 1011.9
20260506001601 9 0 0.0 0.0 0.00 1.30 0.00 96 1012.0
20260506001502 10 0 0.0 0.0 0.00 1.30 0.00 96 1011.8
20260506001401 10 0 0.0 0.0 0.00 1.30 0.00 96 1012.2
20260506001301 10 0 0.0 0.0 0.00 1.30 0.00 96 1012.3
20260506001200 10 0 0.0 0.0 0.00 1.30 0.00 96 1011.8
20260506001100 10 0 0.0 0.0 0.00 1.30 0.00 96 1011.8
20260506001000 10 0 0.0 0.0 0.00 1.30 0.00 97 1012.1
20260506000901 10 0 0.0 0.0 0.00 1.30 0.00 96 1012.0
20260506000701 10 0 0.0 0.0 0.00 1.30 0.00 96 1012.1
20260506000500 10 0 0.0 0.0 0.00 1.30 0.00 96 1012.0
20260506000401 10 0 0.0 0.0 0.00 1.30 0.00 96 1012.0
20260506000302 10 0 0.0 0.0 0.00 1.30 0.00 96 1012.0
20260506000200 10 0 0.0 0.0 0.00 1.30 0.00 96 1012.2
20260506000100 10 0 0.0 0.0 0.00 1.30 0.00 96 1012.2
20260506000002 10 0 0.0 0.0 0.00 1.30 0.00 96 1012.2
20260505235900 10 0 0.0 0.0 0.00 1.30 0.00 96 1012.1
20260505235800 10 0 0.0 0.0 0.00 1.30 0.00 96 1012.1
20260505235700 10 0 0.0 0.0 0.00 1.30 0.00 96 1012.1
20260505235501 10 0 0.0 0.0 0.00 1.30 0.00 96 1012.3
20260505235401 10 0 0.0 0.0 0.00 1.30 0.00 96 1012.1
20260505235300 10 0 0.0 0.0 0.00 1.30 0.00 96 1012.1
20260505235200 10 0 0.0 0.0 0.00 1.30 0.00 96 1012.1
20260505235101 10 0 0.0 0.0 0.00 1.30 0.00 96 1012.1
20260505235001 10 0 0.0 0.0 0.00 1.30 0.00 96 1012.3
20260505234900 10 0 0.0 0.0 0.00 1.30 0.00 96 1012.1
20260505234800 10 0 0.0 0.0 0.00 1.30 0.00 96 1012.1
20260505234701 10 0 0.0 0.0 0.00 1.30 0.00 95 1012.2
20260505234601 10 0 0.0 0.0 0.00 1.30 0.00 95 1012.3
20260505234503 10 0 0.0 0.0 0.00 1.30 0.00 95 1012.2
20260505234401 10 0 0.0 0.0 0.00 1.30 0.00 95 1012.4
20260505234300 10 0 0.0 0.0 0.00 1.30 0.00 95 1012.4
20260505234200 10 0 0.0 0.0 0.00 1.30 0.00 95 1012.1
20260505234101 10 0 0.0 0.0 0.00 1.30 0.00 95 1012.1
20260505234001 10 0 0.0 0.0 0.00 1.30 0.00 95 1012.1
20260505233600 10 0 0.0 0.0 0.00 1.30 0.00 95 1012.3
20260505233501 10 0 0.0 0.0 0.00 1.30 0.00 95 1012.2
20260505233401 10 0 0.0 0.0 0.00 1.30 0.00 95 1012.4
20260505233300 10 0 0.0 0.0 0.00 1.30 0.00 95 1012.4
20260505233200 10 0 0.0 0.0 0.00 1.30 0.00 95 1012.4
20260505233100 10 0 0.0 0.0 0.00 1.30 0.00 95 1012.3
20260505233002 10 0 0.0 0.0 0.00 1.30 0.00 95 1012.3
20260505232900 10 0 0.0 0.0 0.00 1.30 0.00 95 1012.4
20260505232800 10 0 0.0 0.0 0.00 1.30 0.00 95 1012.4
20260505232701 10 0 0.0 0.0 0.00 1.30 0.00 95 1012.4
20260505232501 10 0 0.0 0.0 0.00 1.30 0.00 95 1012.4
20260505232300 10 0 0.0 0.0 0.00 1.30 0.00 95 1012.3
20260505232200 10 0 0.0 0.0 0.00 1.30 0.00 95 1012.4
20260505232101 10 0 0.0 0.0 0.00 1.30 0.00 95 1012.4
20260505231900 10 135 0.0 3.2 0.00 1.30 0.00 95 1012.3
20260505231800 10 135 0.0 3.2 0.00 1.30 0.00 95 1012.6
20260505231700 10 135 0.0 3.2 0.00 1.30 0.00 95 1012.6
20260505231601 10 135 0.0 3.2 0.00 1.30 0.00 95 1012.2
20260505231502 10 135 0.0 3.2 0.00 1.30 0.00 95 1012.3
20260505231400 10 135 0.0 3.2 0.00 1.30 0.00 95 1012.5
20260505231301 10 135 0.0 3.2 0.00 1.30 0.00 95 1012.0
20260505231201 10 135 0.0 3.2 0.00 1.30 0.00 95 1012.2
20260505231000 10 135 0.0 3.2 0.00 1.30 0.00 95 1012.4
20260505230900 10 135 0.0 3.2 0.00 1.30 0.00 95 1012.4
20260505230701 10 0 0.0 0.0 0.00 1.30 0.00 95 1012.5
20260505230601 10 158 0.0 3.2 0.00 1.30 0.00 95 1012.3
20260505230501 10 158 0.0 3.2 0.00 1.30 0.00 95 1012.4
20260505230400 10 158 0.0 3.2 0.00 1.30 0.00 95 1012.4
20260505230301 10 149 0.0 6.4 0.00 1.30 0.00 95 1012.4
20260505230201 10 149 0.0 6.4 0.00 1.30 0.00 95 1012.3
20260505230101 10 150 0.0 6.4 0.00 1.30 0.00 95 1012.4
20260505230002 10 151 0.0 6.4 0.00 1.30 0.00 95 1012.4
20260505225800 10 153 0.0 6.4 0.00 1.30 0.00 95 1012.4
20260505225700 10 154 0.0 6.4 0.00 1.30 0.00 95 1012.4
20260505225601 10 155 1.6 6.4 0.00 1.30 0.00 95 1012.4
20260505225501 10 155 0.0 6.4 0.00 1.30 0.00 95 1012.3
20260505225401 10 155 1.6 6.4 0.00 1.30 0.00 95 1012.3
20260505225300 10 157 0.0 6.4 0.00 1.30 0.00 95 1012.4
20260505225200 10 157 0.0 6.4 0.00 1.30 0.00 95 1012.3
20260505225101 10 157 0.0 6.4 0.00 1.30 0.00 95 1012.3
20260505225001 10 157 1.6 6.4 0.00 1.30 0.00 95 1012.5
20260505224901 10 157 1.6 6.4 0.00 1.30 0.00 95 1012.3
20260505224700 10 158 3.2 11.3 0.00 1.30 0.00 95 1012.3
20260505224600 10 157 3.2 11.3 0.00 1.30 0.00 95 1012.3
20260505224400 10 159 0.0 11.3 0.00 1.30 0.00 95 1012.3
20260505224301 10 156 3.2 11.3 0.00 1.30 0.00 95 1012.2
20260505224201 10 154 0.0 11.3 0.00 1.30 0.00 95 1012.3
20260505224101 10 155 1.6 11.3 0.00 1.30 0.00 95 1012.3
20260505224000 10 155 0.0 11.3 0.00 1.30 0.00 95 1012.3
20260505223801 10 154 0.0 11.3 0.00 1.30 0.00 95 1012.2
20260505223701 10 155 4.8 11.3 0.00 1.30 0.00 95 1012.3
20260505223601 10 149 3.2 11.3 0.00 1.30 0.00 95 1012.4
20260505223500 10 145 3.2 11.3 0.00 1.30 0.00 95 1012.4
20260505223400 10 141 3.2 11.3 0.00 1.30 0.00 95 1012.4
20260505223300 10 137 1.6 11.3 0.00 1.30 0.00 95 1012.3
20260505223201 10 136 1.6 11.3 0.00 1.30 0.00 95 1012.5
20260505223101 10 134 3.2 11.3 0.00 1.30 0.00 95 1012.3
20260505223002 10 135 1.6 11.3 0.00 1.30 0.00 95 1012.3
20260505222901 10 137 3.2 11.3 0.00 1.30 0.00 95 1012.1
20260505222700 10 132 3.2 9.7 0.00 1.30 0.00 95 1012.1
20260505222600 10 138 3.2 9.7 0.00 1.30 0.00 95 1012.3
20260505222501 10 139 1.6 9.7 0.00 1.30 0.00 95 1012.3
20260505222401 10 144 3.2 9.7 0.00 1.30 0.00 95 1012.0
20260505222201 10 146 0.0 9.7 0.00 1.30 0.00 95 1012.2
20260505222000 10 143 1.6 9.7 0.00 1.30 0.00 95 1012.3
20260505221900 10 140 1.6 9.7 0.00 1.30 0.00 95 1012.4
20260505221801 10 140 3.2 9.7 0.00 1.30 0.00 95 1012.5
20260505221601 10 137 0.0 9.7 0.00 1.30 0.00 95 1012.4
20260505221401 10 132 3.2 9.7 0.00 1.30 0.00 95 1012.4
20260505221301 10 138 1.6 6.4 0.00 1.30 0.00 95 1012.2
20260505221200 10 137 3.2 6.4 0.00 1.30 0.00 95 1012.2
20260505221100 10 139 1.6 6.4 0.00 1.30 0.00 95 1012.3
20260505221001 10 137 1.6 6.4 0.00 1.30 0.00 95 1012.2
20260505220901 10 137 1.6 6.4 0.00 1.30 0.00 95 1012.3
20260505220701 10 136 3.2 9.7 0.00 1.30 0.00 95 1012.3
20260505220600 10 133 3.2 9.7 0.00 1.30 0.00 95 1012.4
20260505220500 10 132 3.2 9.7 0.00 1.30 0.00 95 1012.2
20260505220401 10 132 3.2 9.7 0.00 1.30 0.00 95 1012.2
20260505220301 10 127 0.0 9.7 0.00 1.30 0.00 95 1012.4
20260505220101 10 121 3.2 9.7 0.00 1.30 0.00 95 1012.5
20260505220002 11 118 1.6 9.7 0.00 1.30 0.00 95 1012.3
20260505215901 11 113 3.2 9.7 0.00 1.30 1.30 95 1012.4
20260505215701 11 108 3.2 9.7 0.00 1.30 1.30 95 1012.3
20260505215601 11 109 1.6 6.4 0.00 1.30 1.30 95 1012.3
20260505215501 10 112 0.0 6.4 0.00 1.30 1.30 95 1012.0
20260505215301 11 109 1.6 6.4 0.00 1.30 1.30 95 1012.1
20260505215201 11 107 1.6 6.4 0.00 1.30 1.30 95 1012.3
20260505215100 11 110 3.2 6.4 0.00 1.30 1.30 95 1012.3
20260505215000 10 112 0.0 6.4 0.00 1.30 1.30 95 1012.3
20260505214901 10 121 0.0 6.4 0.00 1.30 1.30 95 1012.3
20260505214801 10 126 0.0 6.4 0.00 1.30 1.30 95 1012.2
20260505214701 10 125 0.0 6.4 0.00 1.30 1.30 95 1012.2
20260505214600 11 123 1.6 6.4 0.00 1.30 1.30 95 1012.3
20260505214502 10 127 0.0 6.4 0.00 1.30 1.30 95 1012.5
20260505214400 10 132 0.0 6.4 0.00 1.30 1.30 95 1012.3
20260505214300 11 133 0.0 6.4 0.00 1.30 1.30 95 1012.2
20260505214201 11 133 1.6 6.4 0.00 1.30 1.30 95 1012.1
20260505214101 11 141 1.6 6.4 0.00 1.30 1.30 95 1012.3
20260505214000 11 145 0.0 6.4 0.00 1.30 1.30 95 1012.3
20260505213900 11 140 0.0 6.4 0.00 1.30 1.30 96 1012.3
20260505213800 11 138 0.0 6.4 0.00 1.30 1.30 96 1012.0
20260505213701 11 138 0.0 6.4 0.00 1.30 1.30 96 1012.2
20260505213501 11 135 0.0 6.4 0.00 1.30 1.30 96 1012.3
20260505213400 11 135 1.6 6.4 0.00 1.30 1.30 96 1012.1
20260505213300 11 135 0.0 6.4 0.00 1.30 1.30 96 1012.3
20260505213201 11 135 0.0 6.4 0.00 1.30 1.30 96 1012.3
20260505213101 10 132 0.0 6.4 0.00 1.30 1.30 96 1012.5
20260505213003 11 131 0.0 6.4 0.00 1.30 1.30 96 1012.5
20260505212901 11 130 0.0 6.4 0.00 1.30 1.30 96 1012.4
20260505212801 10 133 0.0 6.4 0.00 1.30 1.30 96 1012.3
20260505212700 10 136 0.0 6.4 0.00 1.30 1.30 96 1012.4
20260505212600 10 136 1.6 6.4 0.00 1.30 1.30 96 1012.5
20260505212301 10 137 0.0 3.2 0.00 1.30 1.30 96 1012.6
20260505212201 10 141 0.0 3.2 0.00 1.30 1.30 96 1012.6
20260505212100 10 149 1.6 3.2 0.00 1.30 1.30 96 1012.3
20260505211901 10 150 0.0 6.4 0.00 1.30 1.30 96 1012.3
20260505211801 10 148 1.6 6.4 0.00 1.30 1.30 96 1012.2
20260505211701 10 148 0.0 6.4 0.00 1.30 1.30 96 1012.3
20260505211600 10 139 0.0 6.4 0.00 1.30 1.30 96 1012.4
20260505211502 10 141 0.0 6.4 0.00 1.30 1.30 96 1012.4
20260505211401 10 141 0.0 6.4 0.00 1.30 1.30 96 1012.3
20260505211300 10 141 0.0 6.4 0.00 1.30 1.30 96 1012.5
20260505211200 10 140 0.0 6.4 0.00 1.30 1.30 96 1012.4
20260505211101 10 137 0.0 6.4 0.00 1.30 1.30 96 1012.4
20260505211001 10 137 0.0 6.4 0.00 1.30 1.30 96 1012.3
20260505210901 10 138 3.2 6.4 0.00 1.30 1.30 96 1012.5
20260505210801 10 136 0.0 6.4 0.00 1.30 1.30 96 1012.5
20260505210700 10 128 1.6 6.4 0.00 1.30 1.30 96 1012.4
20260505210601 10 158 0.0 3.2 0.00 1.30 1.30 96 1012.5
20260505210501 10 0 0.0 0.0 0.00 1.30 1.30 96 1012.3
20260505210401 10 0 0.0 0.0 0.00 1.30 1.30 96 1012.3
20260505210301 10 0 0.0 0.0 0.00 1.30 1.30 96 1012.4
20260505210200 10 0 0.0 0.0 0.00 1.30 1.30 96 1012.3
20260505210100 10 0 0.0 0.0 0.00 1.30 1.30 96 1012.4
20260505205900 10 0 0.0 0.0 0.00 1.30 1.30 96 1012.5
20260505205801 10 0 0.0 0.0 0.00 1.30 1.30 96 1012.3
20260505205501 10 0 0.0 0.0 0.00 1.30 1.30 96 1012.1
20260505205401 10 0 0.0 0.0 0.00 1.30 1.30 96 1012.3
20260505205101 10 0 0.0 0.0 0.00 1.30 1.30 96 1012.1
20260505205000 10 0 0.0 0.0 0.00 1.30 1.30 96 1012.0
20260505204801 10 0 0.0 0.0 0.00 1.30 1.30 96 1012.3
20260505204701 10 0 0.0 0.0 0.00 1.30 1.30 96 1012.3
20260505204601 10 0 0.0 0.0 0.00 1.30 1.30 96 1012.3
20260505204502 10 0 0.0 0.0 0.00 1.30 1.30 96 1012.3
20260505204401 10 0 0.0 0.0 0.00 1.30 1.30 96 1012.2
20260505204200 10 0 0.0 0.0 0.00 1.30 1.30 96 1012.3
20260505204100 11 0 0.0 0.0 0.00 1.30 1.30 96 1012.3
20260505204001 10 0 0.0 0.0 0.00 1.30 1.30 96 1012.1
20260505203701 10 0 0.0 0.0 0.00 1.30 1.30 96 1012.1
20260505203601 10 0 0.0 0.0 0.00 1.30 1.30 96 1012.2
20260505203500 10 0 0.0 0.0 0.00 1.30 1.30 96 1012.2
20260505203401 10 0 0.0 0.0 0.00 1.30 1.30 96 1012.3
20260505203301 10 0 0.0 0.0 0.00 1.30 1.30 96 1012.2
20260505203201 11 0 0.0 0.0 0.00 1.30 1.30 96 1012.0
20260505203101 11 0 0.0 0.0 0.00 1.30 1.30 96 1012.3
20260505203003 11 0 0.0 0.0 0.00 1.30 1.30 96 1012.2
20260505202901 11 0 0.0 0.0 0.00 1.30 1.30 96 1012.1
20260505202801 11 0 0.0 0.0 0.00 1.30 1.30 96 1012.1
20260505202700 11 0 0.0 0.0 0.00 1.30 1.30 95 1012.2
20260505202500 11 0 0.0 0.0 0.00 1.30 1.30 95 1012.2
20260505202401 11 0 0.0 0.0 0.00 1.30 1.30 95 1012.2
20260505202301 11 0 0.0 0.0 0.00 1.30 1.30 95 1012.1
20260505202201 11 0 0.0 0.0 0.00 1.30 1.30 95 1012.0
20260505202000 11 0 0.0 0.0 0.00 1.30 1.30 95 1012.0
20260505201900 11 0 0.0 0.0 0.00 1.30 1.30 95 1012.1
20260505201800 11 0 0.0 0.0 0.00 1.30 1.30 95 1012.1
20260505201502 11 0 0.0 0.0 0.00 1.30 1.30 95 1011.9
20260505201401 11 0 0.0 0.0 0.00 1.30 1.30 95 1011.8
20260505201301 11 0 0.0 0.0 0.00 1.30 1.30 95 1012.0
20260505201201 11 0 0.0 0.0 0.00 1.30 1.30 95 1011.8
20260505201100 11 0 0.0 0.0 0.00 1.30 1.30 95 1012.0
20260505201001 11 0 0.0 0.0 0.00 1.30 1.30 95 1012.1
20260505200901 11 0 0.0 0.0 0.00 1.30 1.30 95 1012.1
20260505200801 11 0 0.0 0.0 0.00 1.30 1.30 95 1012.0
20260505200700 11 0 0.0 0.0 0.00 1.30 1.30 95 1012.1
20260505200500 11 0 0.0 0.0 0.00 1.30 1.30 95 1012.2
20260505200401 11 158 0.0 3.2 0.00 1.30 1.30 95 1012.0
20260505200301 11 158 0.0 6.4 0.00 1.30 1.30 95 1012.2
20260505200201 11 158 0.0 6.4 0.00 1.30 1.30 95 1011.9
20260505200101 11 152 0.0 6.4 0.00 1.30 1.30 95 1011.9
20260505200003 11 153 0.0 6.4 0.00 1.30 1.30 95 1011.9
20260505195901 11 154 0.0 6.4 0.00 1.30 1.30 95 1011.9
20260505195701 11 155 0.0 6.4 0.00 1.30 1.30 95 1011.9
20260505195600 11 152 0.0 6.4 0.00 1.30 1.30 94 1012.0
20260505195501 11 149 1.6 6.4 0.00 1.30 1.30 94 1012.0
20260505195401 11 146 1.6 6.4 0.00 1.30 1.30 94 1011.9
20260505195300 11 145 0.0 6.4 0.00 1.30 1.30 94 1011.8
20260505195201 11 146 0.0 6.4 0.00 1.30 1.30 94 1011.9
20260505195101 11 146 0.0 6.4 0.00 1.30 1.30 94 1011.8
20260505195001 11 145 0.0 6.4 0.00 1.30 1.30 94 1011.9
20260505194900 11 144 0.0 6.4 0.00 1.30 1.30 94 1012.0
20260505194801 11 143 0.0 6.4 0.00 1.30 1.30 94 1011.8
20260505194701 11 143 1.6 6.4 0.00 1.30 1.30 94 1011.9
20260505194502 11 142 0.0 6.4 0.00 1.30 1.30 94 1011.8
20260505194401 11 145 3.2 6.4 0.00 1.30 1.30 94 1011.8
20260505194300 11 145 0.0 6.4 0.00 1.30 1.30 94 1011.8
20260505194201 11 143 1.6 6.4 0.00 1.30 1.30 94 1011.7
20260505194101 11 143 0.0 6.4 0.00 1.30 1.30 94 1011.8
20260505194001 11 141 1.6 6.4 0.00 1.30 1.30 95 1011.8
20260505193901 11 142 0.0 6.4 0.00 1.30 1.30 95 1011.9
20260505193800 11 142 0.0 6.4 0.00 1.30 1.30 94 1011.8
20260505193700 11 143 3.2 6.4 0.00 1.30 1.30 94 1011.7
20260505193601 11 145 1.6 6.4 0.00 1.30 1.30 95 1011.8
20260505193501 11 141 3.2 6.4 0.00 1.30 1.30 94 1011.9
20260505193401 11 137 3.2 6.4 0.00 1.30 1.30 94 1011.8
20260505193201 11 134 3.2 6.4 0.00 1.30 1.30 94 1011.8
20260505193101 11 133 3.2 6.4 0.00 1.30 1.30 94 1012.0
20260505193003 11 131 0.0 6.4 0.00 1.30 1.30 94 1011.8
20260505192901 11 128 3.2 6.4 0.00 1.30 1.30 94 1011.7
20260505192701 11 127 0.0 6.4 0.00 1.30 1.30 94 1011.8
20260505192601 11 125 3.2 6.4 0.00 1.30 1.30 94 1011.6
20260505192501 11 125 1.6 6.4 0.00 1.30 1.30 94 1011.8
20260505192401 11 126 1.6 6.4 0.00 1.30 1.30 94 1011.9
20260505192301 11 126 0.0 6.4 0.00 1.30 1.30 94 1011.7
20260505192101 11 124 3.2 6.4 0.00 1.30 1.30 94 1011.8
20260505192001 11 126 1.6 6.4 0.00 1.30 1.30 94 1011.8
20260505191901 11 125 1.6 6.4 0.00 1.30 1.30 94 1011.9
20260505191801 11 120 3.2 6.4 0.00 1.30 1.30 94 1011.7
20260505191701 11 115 3.2 6.4 0.00 1.30 1.30 94 1011.7
20260505191601 11 113 3.2 6.4 0.00 1.30 1.30 94 1011.8
20260505191502 11 110 0.0 6.4 0.00 1.30 1.30 94 1011.9
20260505191401 11 110 0.0 6.4 0.00 1.30 1.30 94 1011.7
20260505191301 11 110 1.6 11.3 0.00 1.30 1.30 94 1011.7
20260505191201 11 109 0.0 11.3 0.00 1.30 1.30 94 1011.5
20260505191100 11 109 0.0 11.3 0.00 1.30 1.30 94 1011.7
20260505191001 11 113 3.2 11.3 0.00 1.30 1.30 94 1011.6
20260505190801 11 116 3.2 11.3 0.00 1.30 1.30 94 1011.6
20260505190701 11 116 0.0 11.3 0.00 1.30 1.30 94 1011.4
20260505190601 11 117 3.2 11.3 0.00 1.30 1.30 94 1011.4
20260505190501 11 118 0.0 11.3 0.00 1.30 1.30 94 1011.5
20260505190301 11 113 1.6 9.7 0.00 1.30 1.30 94 1011.7
20260505185901 11 118 4.8 9.7 0.00 1.30 1.30 94 1011.7
20260505185801 11 114 3.2 9.7 0.00 1.30 1.30 94 1011.8
20260505185600 11 111 1.6 9.7 0.00 1.30 1.30 94 1011.5
20260505185501 11 112 1.6 9.7 0.00 1.30 1.30 94 1011.3
20260505185401 11 117 3.2 6.4 0.00 1.30 1.30 94 1011.6
20260505185200 11 117 1.6 6.4 0.00 1.30 1.30 94 1011.7
20260505185101 11 110 3.2 6.4 0.00 1.30 1.30 94 1011.5
20260505185001 11 106 1.6 6.4 0.00 1.30 1.30 94 1011.5
20260505184901 11 105 1.6 11.3 0.00 1.30 1.30 94 1011.3
20260505184801 11 113 3.2 11.3 0.00 1.30 1.30 94 1011.3
20260505184502 11 123 3.2 11.3 0.00 1.30 1.30 94 1011.4
20260505184401 11 122 3.2 11.3 0.00 1.30 1.30 94 1011.4
20260505184300 11 123 1.6 11.3 0.00 1.30 1.30 94 1011.3
20260505184201 11 126 3.2 11.3 0.00 1.30 1.30 94 1011.6
20260505184101 11 130 3.2 11.3 0.00 1.30 1.30 94 1011.4
20260505184001 11 134 3.2 11.3 0.00 1.30 1.30 94 1011.5
20260505183900 11 138 6.4 11.3 0.00 1.30 1.30 94 1011.3
20260505183801 11 136 6.4 9.7 0.00 1.30 1.30 94 1011.5
20260505183701 11 133 6.4 9.7 0.00 1.30 1.30 94 1011.5
20260505183501 11 135 3.2 9.7 0.00 1.30 1.30 94 1011.2
20260505183401 12 136 1.6 11.3 0.00 1.30 1.30 94 1011.3
20260505183201 11 135 4.8 11.3 0.00 1.30 1.30 94 1011.3
20260505183101 12 135 3.2 11.3 0.00 1.30 1.30 94 1011.4
20260505183003 12 133 3.2 11.3 0.00 1.30 1.30 94 1011.5
20260505182901 12 131 1.6 11.3 0.00 1.30 1.30 94 1011.6
20260505182800 12 129 1.6 11.3 0.00 1.30 1.30 94 1011.5
20260505182700 12 127 4.8 11.3 0.00 1.30 1.30 95 1011.4
20260505182601 12 126 4.8 11.3 0.00 1.30 1.30 95 1011.3
20260505182501 12 120 4.8 11.3 0.00 1.30 1.30 95 1011.4
20260505182401 12 115 3.2 11.3 0.00 1.30 1.30 95 1011.2
20260505182301 12 112 3.2 11.3 0.00 1.30 1.30 95 1011.3
20260505182201 12 108 3.2 11.3 0.00 1.30 1.30 95 1011.4
20260505182101 12 106 1.6 9.7 0.00 1.30 1.30 95 1011.3
20260505182001 12 105 3.2 9.7 0.00 1.30 1.30 95 1011.3
20260505181800 12 102 3.2 9.7 0.00 1.30 1.30 95 1011.5
20260505181701 12 103 3.2 9.7 0.00 1.30 1.30 95 1011.4
20260505181601 12 105 3.2 9.7 0.03 1.30 1.30 95 1011.3
20260505181503 12 115 3.2 9.7 0.03 1.30 1.30 95 1011.3
20260505181401 12 123 3.2 6.4 0.03 1.30 1.30 95 1011.1
20260505181301 12 121 0.0 6.4 0.03 1.30 1.30 95 1011.2
20260505181201 12 117 1.6 6.4 0.05 1.30 1.30 95 1011.5
20260505181100 12 112 1.6 6.4 0.10 1.30 1.30 96 1011.3
20260505181000 12 114 3.2 6.4 0.10 1.30 1.30 95 1011.5
20260505180901 12 119 0.0 6.4 0.10 1.30 1.30 96 1011.2
20260505180601 12 102 1.6 6.4 0.13 1.30 1.30 96 1011.2
20260505180501 12 90 0.0 3.2 0.13 1.30 1.30 96 1011.3
20260505180401 12 90 1.6 3.2 0.15 1.30 1.30 96 1011.3
20260505180301 12 90 1.6 3.2 0.15 1.30 1.30 96 1011.2
20260505180201 12 90 1.6 3.2 0.15 1.30 1.30 96 1011.2
20260505180100 12 90 0.0 3.2 0.15 1.30 1.30 96 1011.3
20260505180002 12 90 0.0 3.2 0.15 1.30 1.30 96 1011.1
20260505175901 12 90 0.0 3.2 0.15 1.30 1.30 96 1011.1
20260505175801 12 90 1.6 3.2 0.18 1.30 1.30 96 1011.2
20260505175701 12 90 1.6 3.2 0.20 1.30 1.30 96 1011.0
20260505175601 12 90 0.0 3.2 0.20 1.30 1.30 96 1011.3
20260505175501 12 90 0.0 3.2 0.23 1.30 1.30 96 1011.3
20260505175400 12 90 0.0 3.2 0.23 1.30 1.30 96 1011.2
20260505175101 12 90 1.6 3.2 0.28 1.30 1.30 96 1011.2
20260505175001 12 90 0.0 3.2 0.28 1.30 1.30 96 1011.3
20260505174901 12 90 0.0 3.2 0.28 1.30 1.30 96 1011.1
20260505174800 12 90 0.0 3.2 0.28 1.30 1.30 96 1011.1
20260505174601 12 83 0.0 3.2 0.28 1.30 1.30 95 1011.0
20260505174503 12 76 0.0 3.2 0.28 1.30 1.30 95 1010.8
20260505174201 12 68 0.0 3.2 0.28 1.30 1.30 95 1011.0
20260505174101 12 68 0.0 3.2 0.28 1.30 1.30 95 1011.0
20260505173901 12 68 0.0 3.2 0.28 1.30 1.30 95 1010.8
20260505173801 12 68 0.0 3.2 0.28 1.30 1.30 95 1011.2
20260505173701 12 68 0.0 3.2 0.28 1.30 1.30 95 1011.1
20260505173601 12 68 0.0 3.2 0.28 1.30 1.30 95 1011.2
20260505173501 12 68 0.0 3.2 0.28 1.30 1.30 95 1011.1
20260505173300 12 135 0.0 3.2 0.28 1.30 1.30 94 1011.3
20260505173201 12 135 0.0 3.2 0.28 1.30 1.30 94 1011.3
20260505173101 12 135 0.0 3.2 0.28 1.30 1.30 94 1011.0
20260505173003 12 135 0.0 3.2 0.28 1.30 1.30 94 1011.0
20260505172901 12 135 0.0 3.2 0.28 1.30 1.30 94 1011.0
20260505172801 12 135 0.0 3.2 0.28 1.30 1.30 94 1011.0
20260505172701 12 127 0.0 3.2 0.28 1.30 1.30 94 1011.0
20260505172601 12 111 0.0 3.2 0.28 1.30 1.30 94 1010.9
20260505172501 12 96 0.0 3.2 0.28 1.30 1.30 94 1011.0
20260505172401 12 86 1.6 3.2 0.28 1.30 1.30 94 1011.1
20260505172201 12 84 0.0 3.2 0.28 1.30 1.30 94 1011.1
20260505172101 12 88 0.0 3.2 0.28 1.30 1.30 94 1010.9
20260505171800 12 96 0.0 3.2 0.28 1.30 1.30 94 1011.3
20260505171701 12 98 3.2 3.2 0.23 1.27 1.27 94 1011.2
20260505171601 12 102 3.2 3.2 0.23 1.27 1.27 94 1011.2
20260505171503 12 110 1.6 3.2 0.23 1.27 1.27 94 1011.0
20260505171401 12 117 1.6 3.2 0.23 1.27 1.27 93 1011.2
20260505171301 12 116 1.6 3.2 0.20 1.22 1.22 93 1011.1
20260505171200 12 116 0.0 3.2 0.18 1.19 1.19 93 1011.1
20260505171100 12 117 0.0 3.2 0.18 1.19 1.19 93 1011.1
20260505171001 12 119 0.0 3.2 0.18 1.19 1.19 93 1011.3
20260505170801 12 118 1.6 3.2 0.15 1.17 1.17 93 1011.4
20260505170701 12 114 0.0 6.4 0.15 1.17 1.17 93 1011.5
20260505170601 12 112 0.0 6.4 0.15 1.17 1.17 93 1011.3
20260505170501 12 111 0.0 6.4 0.15 1.17 1.17 93 1011.4
20260505170301 13 107 0.0 6.4 0.13 1.14 1.14 92 1011.5
20260505170101 13 105 0.0 6.4 0.13 1.14 1.14 92 1011.7
20260505170002 13 104 0.0 6.4 0.13 1.14 1.14 91 1011.7
20260505165900 13 102 3.2 6.4 0.10 1.12 1.12 91 1011.5
20260505165801 13 101 3.2 6.4 0.10 1.12 1.12 90 1011.8
20260505165701 13 99 1.6 6.4 0.05 1.09 1.09 90 1011.8
20260505165601 13 99 1.6 6.4 0.05 1.09 1.09 90 1011.8
20260505165501 13 96 1.6 3.2 0.03 1.04 1.04 89 1011.5
20260505165400 13 93 1.6 3.2 0.03 1.04 1.04 88 1011.5
20260505165300 13 92 0.0 3.2 0.00 1.02 1.02 88 1011.4
20260505165201 13 92 0.0 3.2 0.00 1.02 1.02 88 1011.3
20260505165001 13 98 0.0 6.4 0.00 1.02 1.02 88 1011.4
20260505164901 13 90 0.0 6.4 0.00 1.02 1.02 88 1011.3
20260505164801 13 84 0.0 6.4 0.00 1.02 1.02 88 1011.4
20260505164600 13 71 0.0 6.4 0.00 1.02 1.02 88 1011.3
20260505164502 13 70 0.0 6.4 0.00 1.02 1.02 88 1011.0
20260505164401 13 68 1.6 6.4 0.00 1.02 1.02 89 1011.3
20260505164301 13 68 0.0 6.4 0.00 1.02 1.02 89 1011.3
20260505164200 13 68 0.0 6.4 0.00 1.02 1.02 89 1011.2
20260505164101 13 60 1.6 6.4 0.00 1.02 1.02 90 1011.2
20260505163801 13 46 1.6 3.2 0.00 1.02 1.02 91 1011.2
20260505163601 13 46 0.0 3.2 0.00 1.02 1.02 91 1011.1
20260505163401 13 0 0.0 0.0 0.00 1.02 1.02 92 1011.2
20260505163301 13 0 0.0 0.0 0.00 1.02 1.02 92 1011.2
20260505163201 13 0 0.0 0.0 0.00 1.02 1.02 92 1011.2
20260505163101 13 0 0.0 0.0 0.00 1.02 1.02 92 1011.2
20260505163002 13 0 0.0 0.0 0.00 1.02 1.02 92 1011.3
20260505162901 13 0 0.0 0.0 0.00 1.02 1.02 92 1011.1
20260505162801 13 0 0.0 0.0 0.00 1.02 1.02 92 1011.3
20260505162701 13 0 0.0 0.0 0.00 1.02 1.02 92 1011.1
20260505162601 13 0 0.0 0.0 0.00 1.02 1.02 92 1011.0
20260505162400 13 0 0.0 0.0 0.00 1.02 1.02 92 1011.1
20260505162301 13 0 0.0 0.0 0.00 1.02 1.02 92 1011.2
20260505162201 13 0 0.0 0.0 0.00 1.02 1.02 92 1011.0
20260505162101 13 0 0.0 0.0 0.00 1.02 1.02 92 1011.2
20260505162000 13 0 0.0 0.0 0.00 1.02 1.02 92 1011.1
20260505161901 13 0 0.0 0.0 0.00 1.02 1.02 92 1011.2
20260505161701 12 0 0.0 0.0 0.00 1.02 1.02 92 1011.3
20260505161401 13 0 0.0 0.0 0.00 1.02 1.02 92 1011.3
20260505161301 13 0 0.0 0.0 0.00 1.02 1.02 92 1011.0
20260505161201 13 0 0.0 0.0 0.00 1.02 1.02 92 1011.1
20260505161101 13 68 0.0 3.2 0.00 1.02 1.02 92 1011.1
20260505161001 13 68 0.0 3.2 0.00 1.02 1.02 92 1011.1
20260505160901 13 68 0.0 3.2 0.00 1.02 1.02 92 1011.0
20260505160801 13 68 0.0 3.2 0.00 1.02 1.02 92 1011.2
20260505160701 13 68 0.0 3.2 0.00 1.02 1.02 92 1010.9
20260505160601 13 65 0.0 3.2 0.00 1.02 1.02 92 1011.1
20260505160501 12 64 0.0 3.2 0.00 1.02 1.02 92 1011.1
20260505160401 13 64 0.0 3.2 0.00 1.02 1.02 92 1011.1
20260505160301 12 64 0.0 3.2 0.00 1.02 1.02 92 1011.0
20260505160201 12 64 1.6 3.2 0.00 1.02 1.02 92 1011.1
20260505153201 12 0 0.0 0.0 0.00 1.02 1.02 96 1011.0
20260505153101 12 0 0.0 0.0 0.00 1.02 1.02 96 1011.2
20260505152901 12 0 0.0 0.0 0.00 1.02 1.02 95 1011.2
20260505152801 12 0 0.0 0.0 0.00 1.02 1.02 95 1010.9
20260505152701 12 0 0.0 0.0 0.00 1.02 1.02 95 1011.2
20260505152601 13 0 0.0 0.0 0.00 1.02 1.02 96 1011.2
20260505152501 13 0 0.0 0.0 0.00 1.02 1.02 96 1011.2
20260505152401 13 0 0.0 0.0 0.00 1.02 1.02 95 1011.2
20260505152304 13 0 0.0 0.0 0.00 1.02 1.02 95 1011.1
20260505152202 13 0 0.0 0.0 0.00 1.02 1.02 96 1011.3
20260505152101 13 0 0.0 0.0 0.00 1.02 1.02 96 1011.1
20260505152000 13 0 0.0 0.0 0.00 1.02 1.02 95 1011.2
20260505151801 13 0 0.0 0.0 0.00 1.02 1.02 96 1011.2
20260505151601 13 0 0.0 0.0 0.00 1.02 1.02 96 1011.1
20260505151504 12 0 0.0 0.0 0.00 1.02 1.02 95 1011.1
20260505151401 13 0 0.0 0.0 0.00 1.02 1.02 95 1011.2
20260505151301 13 0 0.0 0.0 0.00 1.02 1.02 96 1011.2
20260505151200 13 0 0.0 0.0 0.00 1.02 1.02 96 1011.1
20260505151101 13 0 0.0 0.0 0.00 1.02 1.02 96 1011.3
20260505151001 12 0 0.0 0.0 0.00 1.02 1.02 96 1011.2
20260505150901 13 0 0.0 0.0 0.00 1.02 1.02 96 1011.3
20260505150801 12 0 0.0 0.0 0.00 1.02 1.02 96 1011.2
20260505150700 13 0 0.0 0.0 0.00 1.02 1.02 96 1011.4
20260505150601 12 0 0.0 0.0 0.00 1.02 1.02 96 1011.1
20260505150501 12 0 0.0 0.0 0.00 1.02 1.02 96 1011.3
20260505150401 12 0 0.0 0.0 0.00 1.02 1.02 96 1011.4
20260505150301 12 0 0.0 0.0 0.00 1.02 1.02 96 1010.9
20260505150201 12 0 0.0 0.0 0.03 1.02 1.02 96 1011.3
20260505140601 12 0 0.0 0.0 0.10 1.02 1.02 96 1012.0
20260505140401 12 0 0.0 0.0 0.10 1.02 1.02 96 1012.0
20260505140301 12 0 0.0 0.0 0.10 0.99 0.99 96 1011.9
20260505140201 12 0 0.0 0.0 0.10 0.99 0.99 96 1012.0
20260505130301 12 158 0.0 3.2 0.43 0.89 0.89 97 1012.7
20260505130201 12 158 0.0 3.2 0.43 0.89 0.89 97 1012.7
20260505125001 12 90 0.0 3.2 0.51 0.86 0.86 97 1012.8
20260505124901 12 90 0.0 3.2 0.51 0.86 0.86 97 1012.7
20260505124801 12 100 0.0 6.4 0.51 0.86 0.86 97 1013.0
20260505124602 12 99 0.0 6.4 0.51 0.86 0.86 97 1013.0
20260505124502 12 99 0.0 6.4 0.51 0.86 0.86 97 1012.8
20260505124401 12 99 0.0 6.4 0.51 0.86 0.86 97 1012.8
20260505124202 12 101 0.0 6.4 0.48 0.84 0.84 97 1012.8
20260505124101 12 103 0.0 6.4 0.48 0.84 0.84 97 1013.1
20260505124001 12 103 0.0 6.4 0.51 0.84 0.84 97 1012.7
20260505123901 12 103 3.2 6.4 0.48 0.81 0.81 97 1012.8
20260505123801 12 97 3.2 6.4 0.48 0.81 0.81 97 1012.9
20260505123701 12 83 0.0 3.2 0.48 0.81 0.81 97 1012.8
20260505123501 12 0 0.0 0.0 0.48 0.81 0.81 97 1013.0
20260505123401 12 0 0.0 0.0 0.46 0.79 0.79 97 1012.9
20260505123301 12 0 0.0 0.0 0.46 0.79 0.79 97 1012.7
20260505123201 12 0 0.0 0.0 0.46 0.79 0.79 97 1012.6
20260505123003 12 0 0.0 0.0 0.48 0.79 0.79 97 1012.4
20260505122901 12 248 0.0 6.4 0.48 0.79 0.79 97 1012.6
20260505122801 12 248 0.0 6.4 0.51 0.79 0.79 97 1012.7
20260505122701 12 248 0.0 6.4 0.48 0.76 0.76 97 1012.7
20260505122601 12 239 0.0 6.4 0.61 0.76 0.76 96 1012.8
20260505122401 12 215 0.0 6.4 0.61 0.76 0.76 96 1012.5
20260505122301 12 216 0.0 6.4 0.61 0.76 0.76 96 1012.5
20260505122101 12 217 0.0 6.4 0.69 0.76 0.76 96 1012.4
20260505122001 12 217 0.0 6.4 0.69 0.76 0.76 96 1012.6
20260505121901 12 205 0.0 3.2 0.71 0.76 0.76 96 1012.5
20260505121802 12 207 0.0 3.2 0.71 0.76 0.76 96 1012.3
20260505121701 12 207 0.0 3.2 0.71 0.76 0.76 96 1012.4
20260505121601 12 208 0.0 3.2 0.71 0.71 0.71 96 1012.3
20260505121503 12 214 0.0 3.2 0.71 0.71 0.71 96 1012.3
20260505121401 12 225 0.0 3.2 0.71 0.71 0.71 96 1012.2
20260505121101 12 225 0.0 3.2 0.66 0.66 0.66 96 1011.9
20260505121002 12 225 0.0 3.2 0.66 0.66 0.66 96 1012.1
20260505120901 12 225 0.0 3.2 0.64 0.64 0.64 96 1012.0
20260505120801 12 0 0.0 0.0 0.53 0.53 0.53 95 1012.1
20260505120701 12 0 0.0 0.0 0.53 0.53 0.53 95 1011.9
20260505120402 12 337 0.0 3.2 0.53 0.53 0.53 95 1012.2
20260505120301 12 269 0.0 6.4 0.48 0.48 0.48 95 1012.1
20260505120201 12 265 0.0 6.4 0.48 0.48 0.48 95 1012.0
20260505120003 12 265 0.0 6.4 0.48 0.48 0.48 95 1012.2
20260505115901 12 265 0.0 6.4 0.48 0.48 0.48 95 1012.1
20260505115701 12 265 0.0 6.4 0.43 0.43 0.43 95 1012.0
20260505115602 12 257 0.0 6.4 0.43 0.43 0.43 95 1012.0
20260505115501 12 248 0.0 6.4 0.38 0.38 0.38 95 1012.1
20260505115401 12 248 1.6 6.4 0.38 0.38 0.38 94 1012.0
20260505115301 12 248 0.0 3.2 0.36 0.36 0.36 95 1012.1
20260505115201 12 0 0.0 0.0 0.36 0.36 0.36 94 1012.0
20260505115002 12 0 0.0 0.0 0.36 0.36 0.36 94 1012.0
20260505114901 12 0 0.0 0.0 0.36 0.36 0.36 94 1012.1
20260505114801 13 292 0.0 6.4 0.36 0.36 0.36 94 1011.8
20260505114701 13 292 0.0 6.4 0.36 0.36 0.36 94 1012.0
20260505114503 13 282 0.0 6.4 0.36 0.36 0.36 94 1011.9
20260505114301 13 257 0.0 11.3 0.36 0.36 0.36 94 1012.0
20260505114202 13 258 0.0 12.9 0.36 0.36 0.36 94 1012.1
20260505114101 13 248 0.0 14.5 0.36 0.36 0.36 93 1011.7
20260505114001 13 242 0.0 14.5 0.33 0.33 0.33 93 1011.8
20260505113701 13 235 0.0 14.5 0.33 0.33 0.33 93 1011.8
20260505113601 13 230 0.0 14.5 0.33 0.33 0.33 93 1011.8
20260505113502 13 224 1.6 14.5 0.33 0.33 0.33 93 1011.8
20260505113401 13 221 6.4 14.5 0.33 0.33 0.33 92 1011.9
20260505113301 13 215 6.4 14.5 0.33 0.33 0.33 92 1011.8
20260505113201 13 208 8.0 14.5 0.33 0.33 0.33 92 1012.1
20260505113003 14 190 8.0 14.5 0.30 0.30 0.30 91 1011.7
20260505112801 14 167 3.2 11.3 0.28 0.28 0.28 91 1011.8
20260505112701 14 151 6.4 11.3 0.20 0.20 0.20 89 1011.8
20260505112602 15 144 3.2 9.7 0.15 0.15 0.15 88 1012.0
20260505112401 15 135 4.8 6.4 0.15 0.15 0.15 85 1012.0
20260505112301 15 129 0.0 6.4 0.15 0.15 0.15 83 1011.8
20260505112202 16 135 1.6 6.4 0.05 0.05 0.05 80 1011.6
20260505112001 16 0 0.0 0.0 0.05 0.05 0.05 80 1011.8
20260505111902 16 0 0.0 0.0 0.03 0.03 0.03 79 1011.5
20260505111801 16 0 0.0 0.0 0.03 0.03 0.03 77 1011.4
20260505111701 17 22 0.0 3.2 0.00 0.00 0.00 74 1011.7
20260505111601 17 23 0.0 3.2 0.00 0.00 0.00 74 1011.7
20260505111503 17 346 0.0 3.2 0.00 0.00 0.00 71 1011.7
20260505111401 17 323 0.0 3.2 0.00 0.00 0.00 72 1011.6
20260505111302 17 317 0.0 3.2 0.00 0.00 0.00 75 1011.5
20260505111201 17 317 0.0 3.2 0.00 0.00 0.00 72 1011.5
20260505110901 17 286 0.0 3.2 0.00 0.00 0.00 71 1011.5
20260505110602 17 249 0.0 3.2 0.00 0.00 0.00 69 1011.6
20260505110401 17 223 0.0 3.2 0.00 0.00 0.00 70 1011.4
20260505110301 17 220 0.0 3.2 0.00 0.00 0.00 70 1011.6
20260505110201 17 220 0.0 3.2 0.00 0.00 0.00 69 1011.3
20260505102101 18 244 0.0 6.4 0.00 0.00 0.00 67 1011.7
20260505102001 18 232 3.2 6.4 0.00 0.00 0.00 66 1012.0
20260505101901 18 211 1.6 3.2 0.00 0.00 0.00 65 1011.7
20260505101802 18 212 1.6 3.2 0.00 0.00 0.00 65 1011.8
20260505101701 19 227 0.0 6.4 0.00 0.00 0.00 66 1011.8
20260505101301 18 239 0.0 6.4 0.00 0.00 0.00 66 1011.9
20260505101201 18 242 0.0 6.4 0.00 0.00 0.00 66 1011.7
20260505101102 18 243 0.0 6.4 0.00 0.00 0.00 65 1012.0
20260505100901 18 238 0.0 9.7 0.00 0.00 0.00 66 1011.9
20260505100801 18 234 0.0 9.7 0.00 0.00 0.00 66 1011.8
20260505100701 18 239 0.0 9.7 0.00 0.00 0.00 67 1011.6
20260505100602 18 249 0.0 9.7 0.00 0.00 0.00 67 1011.7
20260505100501 18 240 0.0 9.7 0.00 0.00 0.00 66 1011.6
20260505100401 18 235 0.0 9.7 0.00 0.00 0.00 66 1011.8
20260505100301 18 228 1.6 9.7 0.00 0.00 0.00 66 1011.9
20260505100201 18 228 0.0 9.7 0.00 0.00 0.00 67 1011.6
20260505100101 18 226 1.6 9.7 0.00 0.00 0.00 67 1011.6
20260505095901 18 228 3.2 9.7 0.00 0.00 0.00 67 1011.8
20260505095801 18 229 0.0 9.7 0.00 0.00 0.00 67 1011.9
20260505095701 18 222 3.2 9.7 0.00 0.00 0.00 67 1011.9
20260505095602 18 197 1.6 6.4 0.00 0.00 0.00 67 1011.9
20260505095401 18 134 3.2 6.4 0.00 0.00 0.00 64 1012.0
20260505095304 18 89 0.0 6.4 0.00 0.00 0.00 64 1011.9
20260505095201 19 89 0.0 6.4 0.00 0.00 0.00 64 1011.9
20260505095102 18 90 0.0 6.4 0.00 0.00 0.00 64 1011.9
20260505095001 18 92 0.0 6.4 0.00 0.00 0.00 64 1012.0
20260505094901 18 126 0.0 9.7 0.00 0.00 0.00 65 1011.8
20260505094801 18 149 0.0 9.7 0.00 0.00 0.00 65 1011.9
20260505094701 18 145 0.0 11.3 0.00 0.00 0.00 65 1012.2
20260505094601 18 149 0.0 11.3 0.00 0.00 0.00 65 1012.2
20260505094401 18 165 0.0 11.3 0.00 0.00 0.00 65 1011.9
20260505094301 18 173 0.0 11.3 0.00 0.00 0.00 65 1012.1
20260505094202 18 174 0.0 11.3 0.00 0.00 0.00 65 1012.1
20260505094001 18 172 1.6 11.3 0.00 0.00 0.00 67 1011.9
20260505093901 18 167 6.4 11.3 0.00 0.00 0.00 67 1012.1
20260505093801 18 163 6.4 11.3 0.00 0.00 0.00 67 1011.9
20260505093701 18 176 6.4 6.4 0.00 0.00 0.00 65 1012.2
20260505093602 18 206 3.2 6.4 0.00 0.00 0.00 64 1012.1
20260505093502 18 238 1.6 6.4 0.00 0.00 0.00 64 1012.0
20260505093301 18 262 0.0 6.4 0.00 0.00 0.00 66 1012.2
20260505093201 18 263 0.0 6.4 0.00 0.00 0.00 66 1012.0
20260505093101 18 263 0.0 6.4 0.00 0.00 0.00 66 1012.2
20260505093003 18 263 0.0 6.4 0.00 0.00 0.00 64 1012.1
20260505092901 18 263 0.0 6.4 0.00 0.00 0.00 64 1012.1
20260505092801 18 264 0.0 6.4 0.00 0.00 0.00 64 1012.4
20260505092702 18 256 3.2 6.4 0.00 0.00 0.00 65 1012.0
20260505092602 18 252 3.2 6.4 0.00 0.00 0.00 65 1012.3
20260505092501 19 248 4.8 6.4 0.00 0.00 0.00 63 1012.3
20260505092401 19 229 4.8 6.4 0.00 0.00 0.00 63 1012.2
20260505092304 19 222 3.2 6.4 0.00 0.00 0.00 63 1012.1
20260505092202 19 213 0.0 6.4 0.00 0.00 0.00 63 1011.9
20260505092101 19 210 0.0 6.4 0.00 0.00 0.00 63 1012.1
20260505091901 19 269 0.0 6.4 0.00 0.00 0.00 65 1012.4
20260505091802 18 270 1.6 6.4 0.00 0.00 0.00 65 1012.3
20260505091702 18 284 3.2 6.4 0.00 0.00 0.00 64 1012.3
20260505091601 19 296 0.0 6.4 0.00 0.00 0.00 64 1012.3
20260505091503 18 299 3.2 6.4 0.00 0.00 0.00 65 1012.2
20260505091401 18 305 0.0 6.4 0.00 0.00 0.00 66 1012.3
20260505091101 18 296 1.6 6.4 0.00 0.00 0.00 66 1012.3
20260505091002 18 289 1.6 6.4 0.00 0.00 0.00 66 1012.4
20260505090801 18 252 1.6 6.4 0.00 0.00 0.00 67 1012.2
20260505090701 18 249 0.0 6.4 0.00 0.00 0.00 68 1012.1
20260505090601 18 252 0.0 6.4 0.00 0.00 0.00 68 1012.3
20260505090501 17 244 1.6 6.4 0.00 0.00 0.00 66 1012.2
20260505090402 18 231 1.6 6.4 0.00 0.00 0.00 66 1012.4
20260505090302 18 225 0.0 6.4 0.00 0.00 0.00 67 1012.3
20260505090201 18 225 0.0 6.4 0.00 0.00 0.00 64 1012.3
20260505090101 18 222 0.0 6.4 0.00 0.00 0.00 66 1012.6
20260505090003 18 222 0.0 6.4 0.00 0.00 0.00 67 1012.4
20260505085801 17 231 0.0 9.7 0.00 0.00 0.00 67 1012.3
20260505085701 17 230 0.0 9.7 0.00 0.00 0.00 68 1012.5
20260505085602 17 228 0.0 9.7 0.00 0.00 0.00 69 1012.6
20260505085502 17 227 1.6 9.7 0.00 0.00 0.00 68 1012.4
20260505085401 17 227 0.0 9.7 0.00 0.00 0.00 70 1012.5
20260505085301 17 223 1.6 9.7 0.00 0.00 0.00 70 1012.6
20260505085202 17 220 1.6 9.7 0.00 0.00 0.00 70 1012.4
20260505085001 17 222 3.2 9.7 0.00 0.00 0.00 70 1012.2
20260505084901 17 217 3.2 6.4 0.00 0.00 0.00 69 1012.5
20260505084801 17 219 3.2 6.4 0.00 0.00 0.00 69 1012.5
20260505084702 17 219 3.2 6.4 0.00 0.00 0.00 69 1012.4
20260505084302 17 229 1.6 6.4 0.00 0.00 0.00 70 1012.4
20260505084202 17 232 3.2 6.4 0.00 0.00 0.00 72 1012.4
20260505084101 17 234 3.2 6.4 0.00 0.00 0.00 72 1012.6
20260505084001 16 236 3.2 6.4 0.00 0.00 0.00 70 1012.7
20260505083901 16 238 3.2 6.4 0.00 0.00 0.00 70 1012.6
20260505083702 17 239 3.2 6.4 0.00 0.00 0.00 70 1012.5
20260505083602 17 243 0.0 6.4 0.00 0.00 0.00 70 1012.7
20260505083502 17 238 0.0 6.4 0.00 0.00 0.00 70 1012.6
20260505083401 17 235 1.6 6.4 0.00 0.00 0.00 71 1012.6
20260505083301 17 235 1.6 6.4 0.00 0.00 0.00 71 1012.5
20260505083201 17 231 3.2 6.4 0.00 0.00 0.00 70 1012.6
20260505083102 17 208 3.2 6.4 0.00 0.00 0.00 70 1012.5
20260505083002 17 187 0.0 9.7 0.00 0.00 0.00 70 1012.6
20260505082901 16 195 0.0 9.7 0.00 0.00 0.00 73 1012.5
20260505082802 16 202 0.0 9.7 0.00 0.00 0.00 73 1012.7
20260505082702 16 202 0.0 9.7 0.00 0.00 0.00 72 1012.5
20260505082602 16 202 1.6 9.7 0.00 0.00 0.00 73 1012.6
20260505082502 16 202 1.6 9.7 0.00 0.00 0.00 72 1012.7
20260505082401 16 198 1.6 9.7 0.00 0.00 0.00 73 1012.4
20260505082304 16 192 1.6 9.7 0.00 0.00 0.00 73 1012.6
20260505082202 16 191 3.2 9.7 0.00 0.00 0.00 73 1012.7
20260505082101 16 201 3.2 9.7 0.00 0.00 0.00 73 1012.6
20260505081901 16 217 3.2 6.4 0.00 0.00 0.00 72 1012.6
20260505081701 16 228 0.0 6.4 0.00 0.00 0.00 73 1012.7
20260505081602 16 229 0.0 6.4 0.00 0.00 0.00 72 1012.7
20260505081503 16 230 0.0 6.4 0.00 0.00 0.00 73 1012.7
20260505081402 16 234 0.0 6.4 0.00 0.00 0.00 72 1012.8
20260505081302 16 238 0.0 6.4 0.00 0.00 0.00 72 1012.7
20260505081201 16 241 0.0 6.4 0.00 0.00 0.00 72 1012.8
20260505081101 16 249 0.0 6.4 0.00 0.00 0.00 72 1012.7
20260505081001 16 250 1.6 6.4 0.00 0.00 0.00 73 1012.7
20260505080902 16 249 1.6 6.4 0.00 0.00 0.00 73 1012.8
20260505080702 16 240 0.0 6.4 0.00 0.00 0.00 72 1012.9
20260505080601 16 238 0.0 6.4 0.00 0.00 0.00 72 1012.9
20260505080501 16 238 0.0 6.4 0.00 0.00 0.00 71 1012.8
20260505080401 16 238 0.0 6.4 0.00 0.00 0.00 71 1013.0
20260505080302 16 238 0.0 6.4 0.00 0.00 0.00 72 1012.9
20260505080202 16 240 0.0 6.4 0.00 0.00 0.00 72 1012.9
20260505075902 16 236 3.2 6.4 0.00 0.00 0.00 71 1013.0
20260505075801 16 225 0.0 3.2 0.00 0.00 0.00 72 1012.8
20260505075701 16 225 0.0 3.2 0.00 0.00 0.00 72 1012.7
20260505075602 16 225 0.0 3.2 0.00 0.00 0.00 72 1012.9
20260505075501 16 225 0.0 3.2 0.00 0.00 0.00 72 1012.9
20260505075303 16 225 0.0 3.2 0.00 0.00 0.00 74 1012.8
20260505075201 16 0 0.0 0.0 0.00 0.00 0.00 75 1012.8
20260505075102 16 0 0.0 0.0 0.00 0.00 0.00 75 1013.0
20260505075002 16 0 0.0 0.0 0.00 0.00 0.00 75 1013.1
20260505074801 15 0 0.0 0.0 0.00 0.00 0.00 74 1013.0
20260505074601 16 0 0.0 0.0 0.00 0.00 0.00 75 1013.0
20260505074503 16 0 0.0 0.0 0.00 0.00 0.00 75 1012.9
20260505074401 16 0 0.0 0.0 0.00 0.00 0.00 74 1013.0
20260505074301 16 0 0.0 0.0 0.00 0.00 0.00 75 1012.9
20260505074201 15 0 0.0 0.0 0.00 0.00 0.00 74 1012.9
20260505074001 15 225 0.0 3.2 0.00 0.00 0.00 74 1013.1
20260505073902 15 225 0.0 3.2 0.00 0.00 0.00 74 1013.0
20260505073802 15 225 0.0 3.2 0.00 0.00 0.00 74 1012.9
20260505073601 15 225 0.0 3.2 0.00 0.00 0.00 74 1012.9
20260505073501 15 225 0.0 3.2 0.00 0.00 0.00 74 1013.0
20260505073402 15 225 0.0 3.2 0.00 0.00 0.00 74 1012.9
20260505073302 15 225 0.0 3.2 0.00 0.00 0.00 74 1013.1
20260505073201 15 225 0.0 3.2 0.00 0.00 0.00 74 1013.1
20260505073101 16 225 0.0 3.2 0.00 0.00 0.00 74 1013.1
20260505073003 15 0 0.0 0.0 0.00 0.00 0.00 74 1013.4
20260505072901 15 0 0.0 0.0 0.00 0.00 0.00 74 1013.0
20260505072801 15 248 0.0 3.2 0.00 0.00 0.00 75 1013.3
20260505072701 15 248 0.0 3.2 0.00 0.00 0.00 75 1013.1
20260505072602 15 248 0.0 3.2 0.00 0.00 0.00 75 1013.2
20260505072502 15 248 0.0 3.2 0.00 0.00 0.00 75 1013.2
20260505072401 15 248 0.0 3.2 0.00 0.00 0.00 75 1013.3
20260505072301 15 248 0.0 3.2 0.00 0.00 0.00 75 1013.0
20260505072101 15 248 0.0 3.2 0.00 0.00 0.00 75 1013.1
20260505072002 15 248 0.0 3.2 0.00 0.00 0.00 74 1013.1
20260505071902 15 248 0.0 3.2 0.00 0.00 0.00 74 1013.1
20260505071801 15 248 0.0 3.2 0.00 0.00 0.00 74 1013.2
20260505071601 15 248 0.0 3.2 0.00 0.00 0.00 74 1013.0
20260505071503 15 248 0.0 3.2 0.00 0.00 0.00 75 1013.1
20260505071401 15 248 0.0 3.2 0.00 0.00 0.00 75 1013.0
20260505071302 15 248 0.0 3.2 0.00 0.00 0.00 75 1013.4
20260505071102 15 248 0.0 3.2 0.00 0.00 0.00 75 1013.2
20260505070901 15 0 0.0 0.0 0.00 0.00 0.00 75 1013.0
20260505070801 15 0 0.0 0.0 0.00 0.00 0.00 76 1013.1
20260505070702 15 248 0.0 3.2 0.00 0.00 0.00 75 1013.3
20260505070602 15 248 0.0 3.2 0.00 0.00 0.00 75 1013.2
20260505070501 15 248 0.0 3.2 0.00 0.00 0.00 76 1013.2
20260505070401 15 248 0.0 3.2 0.00 0.00 0.00 76 1013.3
20260505070301 15 248 0.0 3.2 0.00 0.00 0.00 76 1013.1
20260505070201 15 248 0.0 3.2 0.00 0.00 0.00 76 1012.9
20260505065901 15 228 0.0 3.2 0.00 0.00 0.00 76 1013.1
20260505065702 15 217 0.0 3.2 0.00 0.00 0.00 76 1013.2
20260505065602 15 212 1.6 3.2 0.00 0.00 0.00 76 1013.2
20260505065502 15 208 1.6 6.4 0.00 0.00 0.00 76 1013.2
20260505065401 15 201 1.6 6.4 0.00 0.00 0.00 76 1013.2
20260505065303 15 191 0.0 6.4 0.00 0.00 0.00 76 1012.9
20260505065202 15 191 0.0 6.4 0.00 0.00 0.00 76 1013.3
20260505065002 15 205 0.0 6.4 0.00 0.00 0.00 76 1013.2
20260505064901 15 206 0.0 6.4 0.00 0.00 0.00 76 1013.2
20260505064702 15 225 0.0 6.4 0.00 0.00 0.00 75 1012.9
20260505064602 15 225 3.2 6.4 0.00 0.00 0.00 75 1013.2
20260505064503 15 0 0.0 0.0 0.00 0.00 0.00 75 1013.0
20260505064402 15 0 0.0 0.0 0.00 0.00 0.00 75 1013.1
20260505064301 15 0 0.0 0.0 0.00 0.00 0.00 75 1013.1
20260505064202 15 0 0.0 0.0 0.00 0.00 0.00 75 1013.3
20260505064102 15 0 0.0 0.0 0.00 0.00 0.00 75 1013.2
20260505064002 15 0 0.0 0.0 0.00 0.00 0.00 75 1013.1
20260505063903 15 0 0.0 0.0 0.00 0.00 0.00 75 1013.1
20260505063801 15 0 0.0 0.0 0.00 0.00 0.00 75 1013.1
20260505063602 15 0 0.0 0.0 0.00 0.00 0.00 76 1013.2
20260505063502 15 0 0.0 0.0 0.00 0.00 0.00 76 1013.1
20260505063402 15 0 0.0 0.0 0.00 0.00 0.00 75 1013.2
20260505063301 15 0 0.0 0.0 0.00 0.00 0.00 75 1013.2
20260505063201 15 0 0.0 0.0 0.00 0.00 0.00 76 1013.1
20260505063102 15 0 0.0 0.0 0.00 0.00 0.00 76 1013.2
20260505063003 15 0 0.0 0.0 0.00 0.00 0.00 76 1013.1
20260505062902 15 0 0.0 0.0 0.00 0.00 0.00 77 1013.2
20260505062802 15 0 0.0 0.0 0.00 0.00 0.00 77 1013.3
20260505062401 14 0 0.0 0.0 0.00 0.00 0.00 77 1013.3
20260505062201 14 0 0.0 0.0 0.00 0.00 0.00 79 1013.3
20260505062102 14 0 0.0 0.0 0.00 0.00 0.00 79 1013.6
20260505062002 14 0 0.0 0.0 0.00 0.00 0.00 80 1013.4
20260505061902 13 0 0.0 0.0 0.00 0.00 0.00 80 1013.5
20260505061801 13 0 0.0 0.0 0.00 0.00 0.00 80 1013.3
20260505061701 13 0 0.0 0.0 0.00 0.00 0.00 80 1013.2
20260505061503 13 0 0.0 0.0 0.00 0.00 0.00 81 1013.4
20260505061301 13 0 0.0 0.0 0.00 0.00 0.00 80 1013.5
20260505061201 13 0 0.0 0.0 0.00 0.00 0.00 81 1013.4
20260505061101 13 0 0.0 0.0 0.00 0.00 0.00 80 1013.2
20260505061002 13 0 0.0 0.0 0.00 0.00 0.00 80 1013.4
20260505060902 13 0 0.0 0.0 0.00 0.00 0.00 80 1013.5
20260505060802 13 0 0.0 0.0 0.00 0.00 0.00 80 1013.3
20260505060701 13 0 0.0 0.0 0.00 0.00 0.00 81 1013.3
20260505060601 13 0 0.0 0.0 0.00 0.00 0.00 81 1013.3
20260505060402 13 0 0.0 0.0 0.00 0.00 0.00 81 1013.1
20260505060202 13 0 0.0 0.0 0.00 0.00 0.00 81 1013.4
20260505060003 13 0 0.0 0.0 0.00 0.00 0.00 81 1013.4
20260505055901 13 0 0.0 0.0 0.00 0.00 0.00 81 1013.5
20260505055801 13 0 0.0 0.0 0.00 0.00 0.00 81 1013.5
20260505055702 13 0 0.0 0.0 0.00 0.00 0.00 82 1013.6
20260505055602 13 0 0.0 0.0 0.00 0.00 0.00 82 1013.4
20260505055502 13 0 0.0 0.0 0.00 0.00 0.00 83 1013.5
20260505055401 13 0 0.0 0.0 0.00 0.00 0.00 83 1013.4
20260505055202 13 0 0.0 0.0 0.00 0.00 0.00 82 1013.5
20260505055102 13 0 0.0 0.0 0.00 0.00 0.00 83 1013.4
20260505055002 13 0 0.0 0.0 0.00 0.00 0.00 83 1013.5
20260505054901 13 0 0.0 0.0 0.00 0.00 0.00 83 1013.6
20260505054801 13 0 0.0 0.0 0.00 0.00 0.00 83 1013.4
20260505054701 13 0 0.0 0.0 0.00 0.00 0.00 84 1013.5
20260505054602 13 0 0.0 0.0 0.00 0.00 0.00 84 1013.4
20260505054301 13 0 0.0 0.0 0.00 0.00 0.00 85 1013.4
20260505054101 13 0 0.0 0.0 0.00 0.00 0.00 85 1013.3
20260505054002 12 0 0.0 0.0 0.00 0.00 0.00 85 1013.4
20260505053802 12 0 0.0 0.0 0.00 0.00 0.00 85 1013.6
20260505053702 12 0 0.0 0.0 0.00 0.00 0.00 85 1013.4
20260505053501 12 0 0.0 0.0 0.00 0.00 0.00 85 1013.3
20260505053401 12 0 0.0 0.0 0.00 0.00 0.00 85 1013.5
20260505053302 12 0 0.0 0.0 0.00 0.00 0.00 85 1013.5
20260505053202 12 0 0.0 0.0 0.00 0.00 0.00 85 1013.5
20260505053101 12 0 0.0 0.0 0.00 0.00 0.00 85 1013.4
20260505053004 12 0 0.0 0.0 0.00 0.00 0.00 85 1013.5
20260505052902 12 0 0.0 0.0 0.00 0.00 0.00 84 1013.5
20260505052802 12 0 0.0 0.0 0.00 0.00 0.00 84 1013.6
20260505052601 12 0 0.0 0.0 0.00 0.00 0.00 84 1013.5
20260505052502 12 0 0.0 0.0 0.00 0.00 0.00 84 1013.6
20260505052402 12 0 0.0 0.0 0.00 0.00 0.00 84 1013.3
20260505052201 12 0 0.0 0.0 0.00 0.00 0.00 85 1013.4
20260505052102 12 0 0.0 0.0 0.00 0.00 0.00 85 1013.4
20260505052002 12 0 0.0 0.0 0.00 0.00 0.00 85 1013.4
20260505051902 12 0 0.0 0.0 0.00 0.00 0.00 85 1013.6
20260505051802 12 0 0.0 0.0 0.00 0.00 0.00 85 1013.6
20260505051701 12 0 0.0 0.0 0.00 0.00 0.00 85 1013.4
20260505051503 12 0 0.0 0.0 0.00 0.00 0.00 85 1013.6
20260505051301 12 0 0.0 0.0 0.00 0.00 0.00 86 1013.4
20260505051201 12 0 0.0 0.0 0.00 0.00 0.00 86 1013.4
20260505051102 12 0 0.0 0.0 0.00 0.00 0.00 86 1013.8
20260505051002 12 0 0.0 0.0 0.00 0.00 0.00 86 1013.4
20260505050902 12 0 0.0 0.0 0.00 0.00 0.00 86 1013.8
20260505050801 12 0 0.0 0.0 0.00 0.00 0.00 86 1013.7
20260505050701 12 0 0.0 0.0 0.00 0.00 0.00 86 1013.6
20260505050602 12 0 0.0 0.0 0.00 0.00 0.00 86 1013.6
20260505050502 12 0 0.0 0.0 0.00 0.00 0.00 86 1013.7
20260505050402 12 0 0.0 0.0 0.00 0.00 0.00 86 1013.5
20260505050201 12 0 0.0 0.0 0.00 0.00 0.00 87 1013.6
20260505041702 11 0 0.0 0.0 0.00 0.00 0.00 87 1013.6
20260505041602 11 0 0.0 0.0 0.00 0.00 0.00 87 1013.6
20260505041402 11 0 0.0 0.0 0.00 0.00 0.00 87 1013.5
20260505041302 11 0 0.0 0.0 0.00 0.00 0.00 87 1013.6
20260505041102 11 0 0.0 0.0 0.00 0.00 0.00 87 1013.7
20260505041002 11 0 0.0 0.0 0.00 0.00 0.00 87 1013.3
20260505040701 11 0 0.0 0.0 0.00 0.00 0.00 87 1013.8
20260505040602 11 0 0.0 0.0 0.00 0.00 0.00 87 1013.7
20260505040502 11 0 0.0 0.0 0.00 0.00 0.00 87 1013.6
20260505040402 11 0 0.0 0.0 0.00 0.00 0.00 87 1013.7
20260505040301 11 0 0.0 0.0 0.00 0.00 0.00 87 1013.5
20260505040202 11 0 0.0 0.0 0.00 0.00 0.00 87 1013.8
20260505040003 11 0 0.0 0.0 0.00 0.00 0.00 87 1013.7
20260505035901 11 0 0.0 0.0 0.00 0.00 0.00 86 1013.5
20260505035402 11 0 0.0 0.0 0.00 0.00 0.00 86 1013.8
20260505035304 11 0 0.0 0.0 0.00 0.00 0.00 86 1013.6
20260505035201 11 0 0.0 0.0 0.00 0.00 0.00 86 1013.8
20260505035001 11 0 0.0 0.0 0.00 0.00 0.00 86 1013.7
20260505034902 11 0 0.0 0.0 0.00 0.00 0.00 86 1013.7
20260505034802 11 0 0.0 0.0 0.00 0.00 0.00 86 1013.8
20260505034702 11 0 0.0 0.0 0.00 0.00 0.00 86 1013.7
20260505034602 11 0 0.0 0.0 0.00 0.00 0.00 86 1013.7
20260505034503 11 0 0.0 0.0 0.00 0.00 0.00 86 1013.8
20260505034402 12 0 0.0 0.0 0.00 0.00 0.00 86 1013.9
20260505034202 12 0 0.0 0.0 0.00 0.00 0.00 86 1013.8
20260505034001 12 0 0.0 0.0 0.00 0.00 0.00 86 1013.8
20260505033902 12 0 0.0 0.0 0.00 0.00 0.00 86 1013.5
20260505033802 12 0 0.0 0.0 0.00 0.00 0.00 86 1013.8
20260505033702 12 0 0.0 0.0 0.00 0.00 0.00 86 1013.7
20260505033601 12 0 0.0 0.0 0.00 0.00 0.00 86 1013.8
20260505033402 12 0 0.0 0.0 0.00 0.00 0.00 85 1013.5
20260505033302 12 0 0.0 0.0 0.00 0.00 0.00 85 1013.7
20260505033202 12 0 0.0 0.0 0.00 0.00 0.00 85 1013.7
20260505033102 12 0 0.0 0.0 0.00 0.00 0.00 85 1013.8
20260505032902 12 0 0.0 0.0 0.00 0.00 0.00 85 1013.8
20260505032802 12 0 0.0 0.0 0.00 0.00 0.00 85 1013.6
20260505032702 12 0 0.0 0.0 0.00 0.00 0.00 85 1013.9
20260505032601 12 0 0.0 0.0 0.00 0.00 0.00 85 1013.6
20260505032301 12 0 0.0 0.0 0.00 0.00 0.00 84 1013.7
20260505032202 12 0 0.0 0.0 0.00 0.00 0.00 84 1013.8
20260505032102 12 0 0.0 0.0 0.00 0.00 0.00 84 1013.7
20260505032002 12 0 0.0 0.0 0.00 0.00 0.00 84 1013.8
20260505031902 12 0 0.0 0.0 0.00 0.00 0.00 85 1013.7
20260505031801 12 0 0.0 0.0 0.00 0.00 0.00 85 1013.8
20260505031702 12 0 0.0 0.0 0.00 0.00 0.00 85 1013.7
20260505031503 12 0 0.0 0.0 0.00 0.00 0.00 85 1013.7
20260505031401 12 0 0.0 0.0 0.00 0.00 0.00 85 1013.9
20260505031302 12 0 0.0 0.0 0.00 0.00 0.00 85 1013.8
20260505031202 12 0 0.0 0.0 0.00 0.00 0.00 85 1013.8
20260505031102 12 0 0.0 0.0 0.00 0.00 0.00 85 1014.2
20260505031002 12 0 0.0 0.0 0.00 0.00 0.00 85 1013.8
20260505030901 12 0 0.0 0.0 0.00 0.00 0.00 84 1014.0
20260505030801 12 0 0.0 0.0 0.00 0.00 0.00 84 1014.2
20260505030702 12 0 0.0 0.0 0.00 0.00 0.00 84 1013.9
20260505030602 12 0 0.0 0.0 0.00 0.00 0.00 84 1014.1
20260505030402 12 0 0.0 0.0 0.00 0.00 0.00 84 1014.1
20260505030302 12 0 0.0 0.0 0.00 0.00 0.00 84 1013.9
20260505030201 12 0 0.0 0.0 0.00 0.00 0.00 84 1013.9
20260505025901 12 0 0.0 0.0 0.00 0.00 0.00 84 1014.3
20260505025801 12 0 0.0 0.0 0.00 0.00 0.00 84 1014.2
20260505025702 12 0 0.0 0.0 0.00 0.00 0.00 84 1014.0
20260505025502 12 0 0.0 0.0 0.00 0.00 0.00 85 1014.0
20260505025402 12 0 0.0 0.0 0.00 0.00 0.00 84 1014.1
20260505025301 12 0 0.0 0.0 0.00 0.00 0.00 84 1014.2
20260505025201 12 0 0.0 0.0 0.00 0.00 0.00 84 1014.3